Theta_e
314 313 314 315 315 316 316 316 316 315 316 311 311 313 313 318 317 318 317 318 318 318 318 317 329 337 341 339 339 339 335 339 338 333 330 341 343 341 344 338 335 332 331 338 345 345 345 339 333 333 334 337 330 326 333 336 339 339 340 339 339 340 341 340 339 340 342 342 342 343 342 342 341 339 336 335 335 334 333 333 335 336 332 330 331 330 329 329 332 335 335 336 336 336 336 336 334
313 314 314 315 315 317 316 316 316 314 313 310 311 314 313 318 318 318 317 318 318 317 316 318 331 337 337 337 337 337 337 339 339 340 343 344 341 342 342 338 336 332 335 341 346 346 346 340 334 333 334 337 331 326 333 337 340 340 341 341 341 341 341 341 341 341 342 342 342 342 341 341 339 337 336 338 338 336 336 337 338 338 334 331 332 331 331 331 331 332 333 335 336 337 337 335 332
313 314 315 315 316 316 317 317 315 312 311 309 311 316 316 316 318 317 317 317 316 317 315 321 334 337 336 338 338 338 339 342 343 344 345 343 342 343 340 338 338 334 336 342 346 346 346 341 335 333 334 336 331 327 334 340 341 341 342 342 342 342 342 341 342 342 342 342 341 341 340 340 339 336 337 339 338 338 338 339 339 338 334 330 331 331 331 332 331 331 332 334 335 336 335 331 329
313 314 315 315 316 316 319 318 316 312 310 309 311 316 317 316 317 316 317 316 316 316 315 321 331 335 338 337 338 340 340 343 346 346 345 344 342 342 338 337 339 337 338 343 346 346 346 341 334 332 333 333 331 327 333 341 342 342 343 342 342 342 342 342 342 341 341 341 341 341 340 339 339 337 338 340 340 340 340 340 340 338 334 328 328 330 332 332 333 332 332 334 334 333 330 328 328
313 315 315 315 317 317 318 316 315 313 311 312 312 316 318 317 316 316 316 315 316 315 315 319 320 330 337 337 340 340 341 344 346 347 347 344 341 339 337 338 340 340 341 344 345 346 345 340 334 332 332 331 331 328 331 340 342 342 342 342 342 342 342 342 341 341 341 341 341 341 340 339 338 337 338 340 340 340 340 340 339 338 335 328 326 329 332 333 333 333 333 333 331 327 326 326 326
313 315 315 314 315 315 316 313 313 312 314 316 314 317 318 317 316 315 316 315 315 314 314 317 319 325 333 339 342 345 345 346 347 347 347 344 341 338 337 339 341 342 342 344 345 345 344 341 336 332 331 331 332 328 329 335 341 342 342 342 342 342 342 342 341 341 341 341 341 341 340 339 338 337 337 339 340 341 340 340 339 338 335 327 327 331 332 333 332 331 331 329 325 323 324 323 325
313 316 315 316 315 314 316 313 312 314 315 316 316 318 317 317 316 315 315 316 316 315 316 319 327 326 327 334 336 346 345 346 347 345 346 344 340 337 337 339 341 342 342 343 344 345 344 341 337 333 330 332 331 329 328 329 337 343 342 343 342 341 342 341 342 341 341 341 341 341 340 338 338 337 336 336 338 339 339 340 339 338 335 327 328 330 329 329 326 324 324 322 322 322 322 324 328
313 315 314 316 316 315 316 314 314 315 314 314 315 317 318 318 316 316 316 316 316 316 317 320 329 323 322 328 326 345 344 344 345 344 345 342 339 338 337 338 341 341 342 343 343 345 344 340 338 334 331 332 331 329 329 326 334 342 342 342 342 342 341 342 342 341 341 341 341 341 339 338 338 337 336 335 334 337 338 339 339 338 336 328 326 327 325 323 322 321 320 320 320 321 323 327 331
313 314 313 315 316 314 314 313 314 315 314 314 315 316 317 317 315 316 316 316 316 315 316 317 323 318 324 329 326 344 345 344 344 344 344 341 340 340 336 336 341 341 341 342 342 345 343 340 337 335 334 333 332 329 329 327 332 341 342 342 342 341 341 342 342 341 341 340 340 340 339 338 338 338 337 334 332 333 334 336 338 338 336 329 325 326 324 322 321 320 319 319 320 321 325 329 331
313 313 314 315 315 312 312 312 314 314 315 314 315 315 315 317 316 316 316 316 316 315 316 317 319 317 321 324 325 343 344 344 343 344 343 341 341 340 336 336 340 340 340 341 342 345 343 340 336 336 335 333 332 330 330 328 331 340 342 342 342 341 341 341 341 341 340 340 340 339 339 339 338 337 337 336 333 333 332 333 337 337 335 331 325 326 325 323 322 321 320 320 320 323 326 329 331
314 312 313 314 312 311 311 312 314 315 315 314 314 314 314 315 315 316 316 316 316 315 316 318 318 317 322 322 332 344 342 344 344 344 342 342 342 340 337 337 339 339 340 341 343 344 343 341 337 336 336 334 332 331 331 328 331 339 342 341 341 341 341 341 341 341 340 340 339 338 338 338 337 337 337 336 335 335 333 333 335 334 331 332 327 324 327 325 323 322 321 321 322 324 326 329 330
314 314 313 314 312 312 312 312 314 316 315 313 315 315 313 314 314 316 316 316 316 314 315 317 319 322 323 325 340 344 342 344 344 343 342 342 342 340 338 338 339 339 339 341 343 344 343 342 339 338 337 334 333 333 331 328 332 339 342 341 341 341 341 340 340 340 339 339 338 338 337 337 336 336 336 335 335 334 334 334 335 332 327 330 329 324 325 326 325 324 323 323 323 324 325 328 329
313 314 314 313 313 314 313 313 314 316 316 314 315 315 313 314 314 316 316 317 316 316 316 315 323 324 320 327 343 343 342 343 342 342 342 342 341 341 339 340 339 339 340 341 343 343 343 343 341 340 339 336 335 334 330 329 334 340 341 341 341 341 340 340 340 339 339 337 337 336 335 335 335 335 335 334 334 333 334 334 334 333 326 326 329 326 325 326 327 326 324 324 323 324 325 327 328
312 313 314 313 313 314 313 313 313 314 315 315 315 313 313 315 315 316 315 317 315 315 316 317 324 322 324 331 342 343 342 342 342 342 342 341 341 341 340 339 339 339 340 341 342 342 343 343 342 341 340 338 337 334 331 333 336 339 341 341 341 340 340 340 339 339 338 336 334 333 333 334 334 334 334 333 333 332 333 333 332 332 326 321 325 326 325 325 326 327 326 325 324 324 325 326 327
311 311 313 314 312 312 313 313 313 312 314 315 315 313 314 314 315 315 314 316 316 320 323 325 327 322 329 330 333 343 342 342 342 342 342 341 340 340 340 339 338 339 340 341 342 342 342 342 342 342 341 340 338 336 335 337 338 340 341 341 341 340 340 339 339 339 336 334 333 331 331 331 331 330 331 330 330 329 330 331 330 329 324 317 319 321 325 325 324 326 326 326 325 324 325 326 327
310 312 314 313 311 311 312 313 313 313 314 315 314 314 314 314 315 314 314 315 316 327 331 330 331 331 336 336 338 343 342 341 341 341 341 341 340 340 340 339 339 340 340 341 341 341 341 342 342 341 340 340 339 338 337 337 338 340 340 341 341 340 340 340 339 338 334 333 332 329 327 326 326 325 323 323 321 320 322 323 322 322 320 314 315 316 320 324 324 326 326 326 326 325 325 325 326
310 312 314 312 311 311 311 313 313 313 314 315 313 313 314 314 314 313 313 313 314 327 332 334 340 343 344 344 344 342 341 341 341 341 341 340 340 340 340 339 339 340 340 340 341 341 341 341 342 342 341 340 339 338 338 338 339 340 341 341 340 340 340 339 339 337 335 334 331 327 323 321 323 323 320 320 320 316 313 312 312 312 313 310 313 314 317 323 323 324 325 325 325 324 325 324 324
310 312 312 311 312 311 312 313 313 314 315 315 314 313 314 315 314 312 312 313 315 325 333 341 346 345 343 343 342 342 341 340 340 341 341 340 340 340 339 339 339 339 339 340 340 340 341 341 341 341 341 339 339 339 339 339 340 340 341 342 341 341 340 339 339 338 337 336 332 326 321 318 319 321 323 324 325 323 317 312 310 309 309 309 310 311 314 322 324 324 325 324 325 324 324 323 323
310 312 311 311 312 312 312 313 312 314 315 316 314 313 314 315 315 313 313 313 316 322 331 341 346 345 343 342 341 341 340 340 341 341 340 340 340 339 339 339 338 338 339 339 340 340 340 341 341 341 341 340 339 339 340 340 341 341 342 342 341 341 340 339 339 338 337 335 330 323 318 318 320 324 326 326 326 328 325 319 314 310 308 308 309 311 314 321 324 323 324 324 325 323 323 323 321
310 311 311 311 312 311 311 312 312 313 314 315 315 313 312 313 314 312 314 313 312 317 324 334 341 345 344 340 341 341 340 340 340 341 341 340 340 339 339 338 338 338 339 338 339 340 340 341 341 341 341 340 340 340 340 341 342 343 342 342 341 341 341 340 339 338 336 331 326 321 321 324 326 329 331 330 329 329 328 324 321 317 314 312 311 312 315 322 325 324 325 324 323 323 327 327 324
310 310 311 310 310 311 311 311 311 311 312 314 314 312 311 311 312 311 313 314 312 314 317 323 328 339 346 339 340 341 339 341 340 340 340 339 339 338 338 338 337 337 338 338 339 340 340 341 340 340 340 341 340 340 340 341 342 342 342 341 341 341 341 340 339 337 333 328 325 324 327 329 330 332 333 334 333 331 330 329 328 327 326 324 320 317 318 321 323 322 322 322 324 329 333 333 331
310 310 311 310 309 310 310 310 311 312 311 311 313 312 311 310 310 311 313 314 314 313 315 322 323 331 345 341 340 340 339 340 340 340 339 339 338 338 338 337 336 336 337 338 338 339 339 340 340 340 340 340 340 340 341 341 341 342 342 342 341 341 341 340 338 337 333 328 328 329 331 333 332 332 333 335 336 335 335 333 333 333 333 333 331 329 328 325 324 325 326 328 332 335 336 335 335
310 310 310 310 309 310 311 311 311 311 310 311 312 310 311 311 311 311 312 313 314 315 314 318 321 329 343 343 340 339 338 339 340 340 339 338 338 337 337 336 336 336 336 337 337 338 339 339 340 339 340 340 340 340 341 341 341 341 342 342 341 341 340 340 338 336 334 332 332 334 334 334 333 333 334 335 336 338 338 336 335 335 334 334 334 335 335 334 333 334 335 335 336 337 337 337 337
310 310 310 310 310 310 311 311 311 310 310 311 311 310 310 311 312 311 310 313 313 313 312 314 326 337 342 341 339 339 338 339 340 340 339 338 338 337 336 336 337 336 336 337 337 338 338 338 339 339 340 340 340 340 341 342 341 341 341 341 341 340 339 340 337 335 336 336 336 337 336 334 335 335 336 336 336 337 338 336 335 335 335 335 335 335 336 337 337 337 337 337 337 338 338 338 338
310 310 310 310 310 311 311 311 312 311 311 311 310 310 311 311 310 310 311 313 312 314 321 327 337 343 342 340 340 340 339 340 341 339 339 338 337 337 336 336 336 336 337 337 337 337 337 338 339 339 339 339 339 340 341 341 341 341 341 341 340 340 339 339 337 335 337 338 338 338 337 336 336 337 336 335 336 336 336 336 335 336 336 337 337 337 338 338 338 338 339 339 339 339 339 339 338
310 310 310 311 311 311 311 311 311 311 311 311 312 312 313 311 309 312 312 312 311 318 332 341 342 343 342 342 340 339 339 340 340 339 338 337 336 337 336 336 336 336 337 337 337 337 336 337 338 339 338 338 339 340 340 340 341 341 341 340 340 340 339 339 336 335 336 337 338 338 338 337 337 337 337 335 335 336 336 335 336 336 337 338 338 338 339 339 339 339 340 340 340 340 340 339 338
308 309 310 310 311 312 311 311 311 311 311 311 313 313 314 312 311 314 312 316 322 324 338 343 342 344 342 342 341 340 340 340 340 339 338 336 336 337 336 336 336 336 337 336 337 336 336 336 338 338 338 338 338 339 340 340 341 340 341 340 340 340 339 339 337 334 335 336 337 337 337 337 337 337 336 336 336 336 336 336 336 337 338 338 338 338 338 339 339 339 340 340 339 339 339 339 338
307 308 309 309 310 311 311 311 311 311 311 311 312 312 314 311 311 313 312 328 338 331 340 346 342 344 343 342 341 340 341 340 341 339 338 338 336 337 337 336 336 337 336 336 336 336 336 336 337 337 337 338 338 339 340 340 340 340 341 340 340 340 339 339 337 334 334 336 337 337 337 337 337 336 335 336 337 337 336 336 337 338 338 338 338 338 338 339 339 339 339 339 338 338 338 338 337
308 308 309 309 309 310 310 311 311 311 311 310 311 311 312 311 312 313 310 330 345 334 339 346 343 345 344 343 342 341 341 341 341 340 339 338 337 337 336 336 336 336 336 336 336 335 335 336 336 337 337 338 338 338 339 340 340 340 340 340 340 339 339 339 337 335 335 337 337 337 338 338 338 337 335 336 337 337 337 338 339 339 338 338 338 338 338 339 339 340 340 338 338 338 338 338 337
308 308 309 309 308 309 309 310 310 311 311 311 311 309 310 312 312 314 309 322 338 335 336 341 343 345 344 344 343 342 342 341 341 340 340 339 337 337 336 336 335 335 336 336 335 334 335 335 335 337 337 336 337 337 339 339 339 339 340 339 340 339 339 339 337 336 337 338 337 338 338 338 339 337 335 336 337 338 338 339 339 339 338 337 337 338 338 339 340 340 339 338 338 338 338 338 337
308 307 308 308 309 309 309 309 310 310 311 311 311 309 310 313 312 313 310 317 330 331 334 340 343 345 344 345 344 343 342 342 342 341 341 340 338 337 336 336 334 335 336 335 335 334 334 335 334 335 336 336 336 337 338 338 338 338 339 339 339 339 339 339 337 336 337 338 337 338 338 338 337 336 334 335 337 338 338 338 338 338 338 337 337 338 338 340 340 339 338 338 338 337 337 337 337
307 307 308 308 308 309 308 308 310 310 311 310 312 311 311 313 313 312 310 317 326 328 335 342 343 345 345 346 345 344 343 342 343 342 341 340 339 338 336 336 335 335 335 335 334 334 335 335 334 335 335 335 336 337 338 337 337 338 339 339 339 339 339 339 338 337 336 336 337 337 338 338 336 335 334 334 336 338 338 338 339 338 338 338 338 338 339 340 339 338 338 337 338 337 337 337 337
308 308 309 308 308 308 308 308 309 310 311 310 311 311 312 313 313 313 311 318 326 327 336 343 343 346 346 346 347 345 344 343 343 343 342 341 340 339 337 337 336 336 335 335 334 335 335 334 334 335 334 335 336 336 337 336 337 337 338 339 339 339 338 338 338 337 336 336 337 338 338 338 336 335 334 334 336 337 338 338 339 339 338 338 338 339 340 339 338 338 338 337 337 337 337 337 337
309 308 308 308 308 308 307 308 308 310 311 310 311 311 312 313 312 313 311 317 325 327 335 342 343 346 347 347 347 346 345 343 342 343 343 341 340 339 338 338 337 336 335 335 335 335 333 331 332 334 333 334 335 335 335 335 336 337 338 338 338 338 337 337 337 336 337 337 337 337 338 338 337 335 334 335 335 336 338 338 339 339 338 338 339 339 339 338 337 337 337 336 336 336 338 338 337
310 309 308 307 308 308 308 308 308 308 310 310 311 310 311 312 312 313 310 312 321 325 333 341 343 345 347 347 347 347 345 344 343 343 343 342 341 340 338 338 337 336 335 335 334 334 332 331 333 334 334 334 334 335 335 335 336 337 338 339 338 338 338 337 336 336 337 337 337 338 338 338 338 336 335 335 336 337 338 338 339 339 338 338 339 339 339 338 337 337 336 337 337 337 337 336 335
309 309 309 308 308 308 308 308 308 308 310 310 310 311 311 311 312 312 311 311 317 324 334 342 343 345 347 347 347 347 346 345 345 344 343 342 340 339 339 338 338 337 336 335 334 334 333 332 334 334 334 335 334 334 335 335 336 337 338 338 338 338 338 338 336 336 336 336 337 337 337 337 338 336 335 336 337 338 338 338 339 339 338 338 339 338 338 338 337 336 337 337 338 337 336 335 334
308 308 309 308 308 308 307 308 308 308 310 310 310 311 310 311 312 312 312 313 316 324 335 341 343 345 347 347 347 347 347 346 345 344 342 340 339 339 339 338 338 338 337 336 335 335 334 334 334 334 334 334 334 334 335 335 336 337 337 338 338 338 338 337 336 335 334 335 335 336 337 337 337 335 335 337 337 337 337 337 339 339 338 338 339 338 338 338 337 337 337 337 337 337 335 334 332
307 309 309 308 308 308 308 308 308 307 309 310 310 310 310 311 311 311 313 314 316 323 334 340 342 345 347 347 346 346 347 344 343 342 341 339 339 339 339 339 338 339 338 337 336 335 335 335 334 334 335 334 334 334 333 334 334 335 336 337 337 337 337 336 336 334 334 334 335 336 336 336 336 336 337 337 337 337 337 338 338 338 338 338 338 338 337 337 337 337 337 336 335 335 334 332 331
307 308 309 309 308 308 308 308 308 307 308 310 310 309 310 311 311 312 312 313 317 322 331 339 342 344 346 346 346 346 345 344 342 342 340 340 339 339 339 339 339 339 339 337 336 336 336 336 334 335 335 334 335 333 332 332 331 330 332 334 336 336 336 336 335 334 335 335 336 336 336 336 336 336 337 337 337 337 337 338 338 337 338 338 338 338 337 337 337 336 336 336 335 335 334 332 331
308 307 308 309 308 308 309 308 308 308 308 310 310 309 311 311 311 312 311 313 320 326 332 339 342 344 345 345 345 345 345 344 342 341 340 339 339 339 339 339 339 339 339 337 337 336 336 336 336 335 335 335 335 335 334 332 329 327 329 333 335 335 335 335 335 336 336 336 336 336 336 336 337 337 337 337 337 337 337 337 337 337 337 338 338 337 337 336 336 336 336 335 335 335 334 332 330
308 307 308 308 307 308 309 309 309 308 308 309 309 310 310 311 312 311 315 318 321 328 334 340 343 344 344 345 344 344 344 343 342 341 340 339 339 339 339 339 339 339 339 338 337 336 336 336 336 335 336 337 336 336 336 331 328 331 333 333 335 335 335 335 336 336 336 336 336 336 337 337 337 337 337 337 337 337 337 337 337 337 337 337 337 336 336 336 335 335 335 334 333 333 334 332 330
308 308 308 307 307 308 308 308 309 308 310 309 309 310 310 313 313 311 319 320 320 329 334 337 341 344 344 345 344 343 343 342 341 341 339 339 339 339 339 339 339 339 339 338 337 338 338 337 337 337 337 337 336 337 336 330 328 333 334 334 335 334 333 335 336 337 336 337 337 336 337 337 338 338 337 337 337 336 336 336 336 336 336 336 335 335 334 334 333 333 332 332 331 331 332 332 330
307 308 308 307 307 308 307 308 309 309 310 309 309 310 310 312 311 314 320 321 321 329 334 335 339 342 342 342 343 342 342 341 341 340 339 338 339 339 339 339 339 340 339 338 338 339 338 336 336 337 337 337 336 337 336 332 331 334 333 333 334 333 333 335 336 337 336 336 336 337 338 338 338 337 337 337 336 336 335 336 336 335 334 334 333 333 333 332 331 331 330 330 330 329 329 330 329
307 308 308 307 308 308 308 308 308 309 309 310 309 309 311 309 312 323 324 322 324 329 333 336 337 339 341 341 342 342 341 341 341 341 339 338 339 339 339 339 339 339 338 337 338 338 336 333 333 334 335 337 336 336 337 335 334 334 333 333 334 333 334 335 336 336 335 336 336 337 337 337 337 337 337 337 335 334 334 334 334 333 333 332 331 331 330 330 329 328 328 328 327 327 327 328 327
306 308 307 307 308 308 308 308 308 310 309 310 309 308 311 309 312 325 326 321 324 328 330 333 334 337 339 340 340 340 340 340 340 340 339 338 339 340 339 338 339 338 338 338 337 337 335 333 333 332 334 336 336 336 336 336 335 334 334 333 333 333 334 335 335 335 334 335 335 334 335 336 336 336 336 335 333 332 332 332 331 331 331 330 329 329 328 328 327 326 326 326 326 325 324 325 324
306 307 307 307 308 308 308 308 309 310 310 311 311 308 310 310 310 322 326 321 322 326 327 330 332 334 336 338 339 339 338 338 338 339 339 338 339 339 338 338 338 338 338 337 337 337 336 334 332 332 333 335 336 336 337 336 334 333 333 332 332 333 334 334 334 334 334 333 333 332 334 335 335 334 333 331 330 330 330 330 330 330 329 328 328 327 327 326 325 325 324 323 323 323 322 322 321
306 307 307 307 308 308 309 309 308 310 311 311 310 308 309 311 310 317 325 325 323 323 325 327 329 331 333 335 336 337 337 337 337 338 338 339 339 338 338 338 337 338 338 337 338 337 335 333 333 333 334 335 336 336 335 334 332 332 332 332 332 333 334 335 334 333 332 331 331 331 332 333 332 331 330 329 329 329 329 329 329 328 327 326 326 325 325 324 323 323 322 322 321 321 320 319 317
306 307 307 307 308 308 309 309 309 310 312 310 309 309 309 310 311 314 321 325 325 323 322 325 327 328 330 333 334 335 336 336 336 337 338 339 339 338 337 337 337 337 337 337 337 335 333 333 334 334 335 336 336 335 334 332 330 330 332 332 332 332 333 335 334 332 331 331 332 330 329 330 329 328 328 328 328 328 328 327 326 326 325 324 324 323 322 322 321 321 321 320 319 318 317 315 314
306 307 307 307 307 308 309 310 309 310 310 309 308 308 309 310 311 313 316 319 322 324 322 323 326 328 330 331 333 334 335 336 336 336 337 338 338 338 337 337 336 336 337 337 336 334 333 333 334 335 335 335 336 335 334 332 330 331 332 333 332 332 334 335 334 332 332 333 333 330 328 327 327 326 327 327 326 326 325 325 324 323 323 322 322 321 321 320 320 319 319 318 316 315 313 312 310
307 307 308 307 307 309 309 310 309 309 310 308 307 308 310 310 311 313 314 314 319 323 325 325 325 328 331 331 333 335 335 336 336 336 337 337 337 338 338 337 336 336 337 336 336 335 334 334 335 335 335 335 335 335 333 331 330 332 333 333 332 332 334 335 334 333 333 333 332 330 327 326 326 326 326 325 324 324 323 322 322 321 321 321 320 320 319 319 318 317 316 315 313 312 311 310 309
307 307 307 308 308 308 308 308 309 309 311 309 308 309 311 311 312 315 316 316 319 321 322 324 324 326 329 331 333 335 335 336 336 336 336 336 337 338 337 337 336 336 337 336 335 334 334 334 335 335 335 335 335 335 333 330 329 333 334 333 332 333 334 335 333 333 333 332 331 328 326 325 325 325 325 324 322 322 321 320 320 320 319 319 319 318 318 317 317 315 314 313 311 310 310 309 308
307 306 307 308 309 309 309 309 311 311 311 310 310 310 312 312 313 319 323 323 324 324 322 323 325 326 329 332 334 335 335 336 336 335 335 336 337 338 337 337 337 336 336 336 334 334 334 334 334 335 335 335 335 335 333 330 330 333 334 333 332 333 334 334 333 332 333 332 329 327 325 325 325 325 325 323 321 320 319 318 318 318 318 318 317 317 317 316 315 313 312 311 310 310 309 307 305
307 306 307 307 307 310 311 310 311 311 310 311 311 310 311 311 313 324 329 328 330 330 327 326 328 330 332 334 335 336 336 336 336 335 335 335 337 338 337 337 337 336 336 337 335 335 335 334 334 335 335 335 335 335 333 331 333 334 333 333 333 333 332 334 334 332 330 330 328 325 325 325 325 325 323 321 319 318 318 318 318 317 316 316 316 316 316 315 313 312 311 310 309 309 307 304 303
307 307 307 307 306 309 311 310 310 310 310 312 312 311 311 309 312 326 332 331 333 333 331 331 332 332 333 335 336 336 336 336 336 335 335 336 336 338 338 337 337 337 337 337 336 335 335 334 335 335 335 335 335 334 333 333 334 333 333 333 333 332 333 334 334 331 328 328 326 324 324 324 323 322 321 319 319 318 317 317 317 316 315 315 315 315 315 314 312 311 310 309 308 307 305 303 303
307 308 307 307 308 309 309 311 311 310 310 311 312 312 312 309 311 321 329 333 336 334 332 333 333 333 334 335 336 336 336 336 335 335 335 335 336 337 337 337 337 337 337 336 336 335 335 335 335 335 335 335 335 334 334 333 334 333 333 332 331 332 333 332 331 329 327 325 325 324 324 323 321 320 319 319 318 317 317 316 316 315 314 314 314 314 314 313 312 310 309 308 306 304 303 303 304
307 309 306 307 309 309 310 311 312 312 311 311 313 313 312 311 312 315 321 331 337 335 334 334 333 334 335 335 336 335 335 336 335 335 336 336 336 337 337 337 337 337 336 336 335 335 335 335 335 336 335 335 335 334 334 334 333 333 333 331 330 331 332 331 329 327 325 324 323 323 322 321 320 319 318 318 317 317 316 316 315 315 314 313 314 314 313 313 311 309 308 306 304 303 303 303 303
308 309 308 307 308 308 310 310 310 311 312 311 312 313 312 314 317 314 318 330 335 336 336 334 334 334 334 335 336 335 335 335 335 335 336 336 337 337 337 336 336 336 336 336 335 335 335 335 335 335 335 335 334 334 333 333 331 331 332 329 328 329 331 328 325 324 323 322 321 321 321 320 318 318 317 317 316 316 315 315 315 314 313 313 313 313 313 312 310 308 307 304 302 302 302 303 303
309 310 309 308 308 309 309 309 309 309 311 312 312 312 312 317 320 320 325 331 331 333 334 334 334 334 334 335 335 335 335 335 335 336 336 336 337 336 336 336 336 336 336 335 335 335 335 335 335 335 334 334 334 333 334 332 330 329 329 326 325 327 328 325 322 321 322 320 319 319 320 319 317 317 317 316 316 315 315 314 314 313 312 312 312 313 312 311 309 307 305 302 301 302 302 302 302
Wind_Speed
11 10 9 10 8 3 1 2 1 1 1 1 2 1 1 3 0 2 5 5 2 1 1 3 3 5 2 1 3 2 1 1 1 2 2 2 4 1 14 8 8 23 32 30 24 28 29 28 28 26 25 23 24 25 24 24 23 22 21 20 20 20 19 19 20 20 19 19 18 18 17 17 17 16 16 16 16 16 17 16 15 14 13 12 12 12 12 13 13 14 13 12 11 11 11 11 12
10 9 8 7 6 3 0 1 1 1 1 1 1 0 1 1 0 3 7 5 3 4 3 4 3 5 2 2 0 1 3 1 1 2 3 1 4 7 15 7 8 26 31 26 23 26 26 27 27 26 24 22 23 24 23 23 23 22 21 20 20 19 19 19 19 19 19 19 18 17 17 16 16 16 16 16 16 15 16 16 15 13 11 12 12 12 12 12 12 13 13 12 12 10 10 10 10
10 9 7 5 3 3 1 1 1 0 0 1 2 1 0 1 2 2 3 4 6 8 6 3 2 4 3 3 3 2 2 0 1 1 1 2 4 10 15 6 13 28 28 23 22 24 24 26 27 26 24 22 22 22 22 21 22 21 20 20 19 19 18 19 18 19 19 18 18 17 16 16 15 15 16 16 16 15 16 15 14 12 10 11 12 12 12 12 12 12 12 11 11 9 9 9 9
7 7 6 4 1 1 1 1 0 1 2 1 3 1 2 2 3 1 2 4 8 7 6 3 0 2 3 5 3 2 2 1 2 2 1 2 5 14 15 9 19 27 23 22 22 22 23 27 28 27 24 23 22 22 21 20 21 20 20 19 19 19 18 19 18 19 18 18 18 16 16 15 14 15 16 15 15 15 15 14 13 12 10 11 11 12 13 13 12 11 11 10 9 9 8 8 7
3 4 4 2 0 1 2 0 1 2 3 2 3 0 3 3 5 1 2 4 8 6 5 4 3 1 2 3 0 1 1 2 1 3 2 4 8 17 16 14 21 21 20 20 20 20 22 27 27 26 25 23 22 21 20 20 22 20 20 19 19 19 18 19 18 19 18 17 17 15 15 15 14 15 15 15 14 14 14 13 12 11 10 10 11 12 13 13 12 11 10 9 8 8 7 7 6
1 3 6 4 1 1 2 2 2 4 3 3 4 3 3 3 6 3 2 4 6 5 3 3 3 1 2 1 0 0 1 0 1 2 3 8 12 17 17 18 20 18 19 19 19 18 21 26 26 26 25 23 22 21 20 21 22 20 20 19 19 19 19 19 18 18 17 17 16 15 15 15 14 14 15 14 14 13 13 12 11 10 9 10 11 12 12 12 12 11 10 9 8 8 7 6 6
2 3 4 3 2 1 3 4 5 5 4 5 6 6 4 3 4 5 2 3 2 3 1 2 2 2 3 2 1 1 1 2 0 1 5 12 17 19 20 21 19 19 20 18 18 18 22 25 25 26 25 23 22 22 20 20 22 21 19 19 19 20 19 19 18 17 17 16 16 15 14 14 14 14 14 13 13 13 13 12 11 9 8 9 10 11 12 12 11 10 10 9 8 8 7 6 6
2 2 1 1 1 0 2 4 5 4 3 3 5 6 4 4 2 4 3 1 2 1 2 3 1 3 3 2 2 2 2 1 1 2 8 16 21 21 23 24 20 20 19 18 17 18 24 25 24 25 24 23 22 22 20 19 21 21 20 19 19 20 20 19 19 18 17 16 15 14 14 13 13 13 12 12 12 12 12 11 11 9 8 9 10 11 11 11 11 10 10 9 9 8 7 6 6
2 1 0 3 2 1 2 3 4 3 3 4 5 3 2 3 2 2 3 2 1 2 4 3 0 3 3 3 4 3 3 2 5 7 13 20 22 21 26 26 21 22 21 19 18 19 24 25 25 25 23 23 22 22 21 19 21 22 20 20 20 20 20 19 19 18 17 16 15 14 14 13 12 12 11 11 11 11 11 10 11 9 8 9 10 10 11 11 11 10 10 9 9 8 7 6 5
1 1 1 2 2 4 5 4 3 4 5 5 6 3 3 4 2 3 3 3 3 3 4 0 0 4 3 5 5 2 3 4 10 12 16 20 19 20 26 25 22 24 22 20 20 20 23 24 25 24 23 23 23 22 21 20 21 22 20 20 20 20 20 20 19 18 18 16 15 14 14 13 12 11 10 9 9 10 10 10 10 9 8 9 9 10 10 11 11 10 10 9 9 8 7 6 5
2 1 1 2 4 6 6 6 6 5 4 3 6 4 4 4 2 4 5 4 4 4 3 1 2 4 2 5 3 3 5 6 10 13 15 17 17 21 25 23 22 22 21 22 22 21 22 24 24 24 24 23 23 23 21 21 22 22 21 21 21 21 20 20 20 19 18 16 15 14 13 12 11 10 10 9 8 8 8 9 10 9 8 9 9 9 9 10 10 10 9 9 8 7 6 5 4
3 2 2 5 6 6 6 8 9 8 5 4 6 5 4 5 3 5 8 7 4 4 4 4 2 2 3 5 1 4 6 7 9 13 15 16 17 19 22 21 19 19 21 23 22 21 21 23 24 23 24 24 24 23 22 22 22 23 22 22 21 21 20 19 19 18 17 16 15 14 13 12 11 10 9 9 9 9 8 8 8 8 9 9 9 9 9 9 9 9 9 8 8 7 6 5 4
4 3 4 6 4 5 7 7 8 8 7 6 7 4 5 6 6 9 8 8 5 3 4 8 3 2 5 4 2 3 6 8 10 13 15 17 17 17 19 19 18 19 21 22 21 21 21 23 24 23 23 24 23 22 22 22 23 23 22 22 21 20 20 19 18 17 16 15 14 13 12 12 11 10 9 8 9 9 8 7 7 7 8 9 9 9 8 8 8 9 8 8 7 7 6 4 3
3 2 5 4 2 6 7 6 6 8 7 6 6 4 6 5 6 8 5 8 9 3 2 5 4 3 5 3 2 3 7 11 13 14 16 17 17 18 18 18 18 19 21 21 22 22 22 23 23 23 23 22 22 22 22 22 23 23 22 21 21 20 19 18 18 16 15 15 13 12 11 10 10 9 8 8 8 8 8 7 6 6 7 9 9 9 8 8 8 8 8 8 7 6 5 4 3
3 2 3 3 3 5 7 7 7 10 7 6 7 7 7 5 2 5 7 10 8 1 2 3 4 3 1 3 3 2 10 15 16 15 17 17 17 18 18 18 18 19 20 21 22 22 22 22 22 22 23 22 22 21 20 22 22 22 21 20 20 19 18 16 16 15 14 13 12 11 10 9 9 9 7 7 7 7 7 6 6 5 6 8 9 9 8 8 8 7 7 7 7 6 5 4 3
2 2 2 4 6 7 7 7 8 10 6 4 7 8 9 6 3 4 5 7 4 2 2 3 4 3 1 3 4 6 16 18 17 17 19 19 18 18 17 17 18 18 18 19 21 21 21 23 22 21 22 23 22 21 20 21 22 21 20 19 19 18 17 16 15 15 14 12 11 10 9 9 8 7 7 6 6 6 6 5 5 5 5 6 8 9 9 9 8 7 6 6 6 6 5 4 2
2 3 5 6 7 9 8 9 8 6 5 5 7 8 9 6 4 3 0 4 5 1 2 2 2 2 3 4 3 12 20 19 19 20 21 21 19 18 18 18 18 18 18 18 20 21 21 22 22 21 22 23 22 21 20 21 21 21 20 18 18 17 16 15 15 14 12 11 10 9 9 9 9 8 8 8 7 6 6 6 5 5 5 7 8 9 9 9 8 7 6 5 5 4 4 2 2
4 4 7 8 8 8 9 12 8 5 8 11 7 10 12 9 6 3 2 4 4 2 2 2 1 2 4 4 8 17 20 20 21 22 22 21 19 19 18 19 19 19 20 19 19 20 21 21 22 21 22 23 23 21 20 20 21 21 19 18 17 16 16 15 14 12 10 9 9 9 10 11 11 11 10 8 8 8 8 8 7 6 5 6 8 9 9 9 9 7 6 4 3 2 1 1 2
6 3 7 9 7 7 8 12 9 6 10 12 5 10 12 10 8 5 4 7 5 5 4 2 4 2 4 7 12 17 19 21 21 22 22 20 20 20 20 20 20 20 21 21 20 20 20 20 22 22 22 24 23 21 20 20 21 20 19 18 16 16 15 14 12 10 9 9 9 11 12 12 13 12 11 9 9 8 8 9 9 8 7 7 7 9 9 9 8 7 5 4 2 1 1 2 3
5 3 8 8 4 5 6 8 9 5 5 10 9 6 9 7 6 5 5 8 6 7 6 4 7 6 5 7 11 16 18 20 20 21 21 20 20 20 21 21 22 21 20 20 21 21 20 20 22 22 22 23 22 21 19 19 20 19 18 18 16 16 15 13 11 10 9 10 11 13 13 14 13 11 10 9 8 8 10 11 11 11 11 10 9 8 8 8 7 6 5 3 1 1 1 2 2
4 6 8 3 4 6 5 5 8 7 4 9 8 2 6 5 4 5 6 7 6 6 7 7 9 7 9 9 11 16 17 19 20 21 20 20 20 19 20 21 20 20 19 20 21 22 21 21 22 23 23 22 21 21 20 20 20 19 18 18 16 15 14 12 11 9 10 12 14 14 14 14 12 9 9 8 7 8 11 12 12 12 12 11 10 9 7 7 6 5 3 2 1 0 1 2 2
4 7 4 3 4 7 6 5 6 6 3 5 6 3 3 4 3 5 8 10 7 6 7 7 9 6 10 12 13 16 16 18 19 20 21 21 21 19 19 20 19 20 20 20 22 23 23 22 21 22 23 22 21 20 20 20 20 19 17 17 16 15 13 12 10 9 11 14 14 15 13 12 12 11 11 9 7 7 9 11 11 10 11 10 10 9 7 6 5 5 3 2 1 1 1 2 3
6 6 3 3 5 5 4 4 4 4 5 6 6 3 1 3 3 4 9 11 5 4 4 4 6 4 9 13 14 16 16 17 19 22 23 23 23 22 22 22 21 21 20 20 21 23 23 22 22 22 22 22 22 20 19 18 19 18 16 16 16 15 14 12 10 10 12 14 14 14 12 12 12 12 12 11 9 7 6 9 10 9 9 8 8 7 6 6 5 5 4 2 1 1 2 3 4
10 5 5 5 5 5 3 3 3 3 6 6 3 2 0 3 2 2 6 7 4 3 3 3 3 2 9 13 13 15 16 17 19 22 22 23 23 22 23 22 20 19 19 20 21 22 23 22 21 22 21 21 21 20 19 17 18 17 16 16 15 15 15 11 11 12 13 13 13 12 11 12 11 10 10 10 9 7 7 9 9 8 8 7 6 6 5 5 4 4 2 1 1 2 3 4 4
12 7 4 4 4 7 5 3 3 2 4 3 3 6 5 5 2 2 6 5 5 4 3 2 2 6 9 11 13 13 15 17 18 20 20 20 21 21 21 20 19 19 20 21 21 21 22 21 20 20 21 21 21 19 18 17 18 17 15 16 15 15 14 11 12 13 13 13 12 10 10 11 9 7 8 9 7 7 8 9 9 8 8 6 5 4 4 3 3 2 1 1 1 3 4 4 5
9 9 5 5 6 6 4 5 6 4 3 3 6 8 8 4 2 5 7 8 8 5 4 3 5 7 8 9 12 13 15 17 17 20 20 19 20 22 22 21 20 21 21 21 20 20 21 21 19 20 21 21 20 19 18 17 18 16 15 15 15 14 13 11 14 14 13 12 11 10 10 9 8 6 6 7 6 6 7 8 7 7 6 5 4 3 2 2 2 2 2 2 3 4 4 4 5
4 10 9 8 8 5 3 4 6 4 2 4 7 10 10 4 5 6 3 4 7 5 5 5 6 7 8 9 11 13 14 16 18 19 18 18 21 22 22 22 21 21 20 20 19 18 20 20 19 20 22 20 19 19 17 16 17 16 15 15 13 14 13 12 14 14 13 12 11 11 10 8 7 6 5 5 4 4 5 6 6 5 4 4 3 3 2 2 2 3 3 4 3 3 4 4 5
3 8 9 9 9 8 7 7 6 4 3 5 6 11 12 5 6 9 3 2 4 6 5 6 6 6 8 9 10 11 12 16 20 19 19 21 21 21 22 22 22 21 21 21 18 17 18 19 18 19 21 19 18 19 18 17 16 16 16 14 12 13 13 11 13 15 14 12 12 11 10 8 6 5 4 3 3 3 4 5 4 4 3 2 3 3 2 2 2 3 4 4 2 2 3 4 5
2 3 4 7 8 10 12 11 8 6 5 3 4 9 13 11 8 7 6 4 4 5 6 6 6 6 7 8 9 10 12 16 20 20 22 23 19 19 21 21 24 22 19 19 16 16 17 17 17 18 19 18 18 18 18 17 16 15 15 14 12 13 12 10 12 15 14 13 13 11 9 7 5 3 3 3 3 2 3 3 3 3 2 2 2 2 2 1 2 3 3 2 2 3 3 4 5
6 3 3 5 6 8 10 12 11 9 7 5 5 8 13 15 10 8 7 6 6 7 7 7 6 6 7 8 8 10 13 16 19 21 23 23 19 17 18 21 26 21 14 16 17 17 16 16 16 17 17 18 18 18 17 17 17 16 15 13 12 13 12 10 12 14 13 12 12 10 8 6 4 3 3 3 3 2 2 2 2 2 2 2 1 1 1 1 2 2 2 2 2 3 3 3 4
8 5 4 5 6 5 8 11 13 12 8 7 8 10 11 9 6 7 6 7 10 10 9 9 8 7 8 8 9 10 13 16 19 21 23 23 20 17 19 22 26 18 12 15 17 16 16 15 17 18 17 17 18 18 18 17 19 19 15 13 13 11 11 9 11 14 13 12 11 10 7 5 4 4 4 3 3 2 1 1 2 3 3 3 3 1 1 1 1 1 1 2 3 3 3 3 3
7 7 6 7 7 4 6 9 13 14 9 10 12 9 9 10 6 7 6 8 11 11 10 10 10 10 9 9 9 10 11 14 18 21 23 23 21 20 21 22 22 16 12 14 15 15 14 13 15 16 16 17 17 17 19 18 19 19 15 13 12 10 10 9 9 12 13 13 12 10 7 5 5 5 4 3 3 2 1 1 3 4 4 4 3 1 1 1 1 0 0 2 3 4 4 4 4
7 8 6 8 9 5 5 6 12 16 10 12 16 10 6 7 7 8 7 9 11 10 10 10 11 11 10 9 8 9 10 12 15 20 23 24 23 21 19 19 18 14 12 13 14 14 14 12 13 15 16 18 17 17 19 18 18 17 13 12 14 13 12 11 10 11 12 13 12 9 8 6 6 6 5 4 3 3 1 2 3 4 5 4 2 1 2 2 1 1 1 2 3 4 5 5 6
6 7 3 4 10 8 5 5 8 16 13 13 18 16 12 8 5 5 6 9 11 10 10 11 10 9 9 8 8 9 10 12 14 19 24 24 22 20 17 16 16 14 13 14 16 18 20 20 19 19 19 20 19 19 20 19 17 14 10 11 15 15 14 13 12 12 12 13 12 10 8 7 7 7 6 5 4 3 2 3 4 4 5 4 2 2 2 3 2 2 1 2 3 4 4 5 7
8 8 6 4 8 11 11 8 6 13 16 15 17 17 18 16 12 7 5 7 10 10 10 11 11 11 10 9 9 9 10 13 13 16 21 20 18 18 16 15 15 14 15 17 21 23 23 22 22 21 21 22 22 21 21 19 16 12 9 11 13 13 13 14 14 13 13 12 12 10 9 8 8 8 7 5 4 3 3 3 4 4 5 4 3 3 3 3 2 1 1 1 3 3 3 5 7
11 9 9 7 8 11 10 9 8 12 14 14 16 14 15 18 17 13 6 6 7 8 8 9 10 11 10 10 10 10 11 12 10 12 15 14 15 16 16 16 16 16 17 21 23 20 18 20 22 22 21 21 22 22 20 17 14 11 12 13 14 14 14 14 15 13 13 13 12 11 9 9 9 9 8 6 5 4 3 4 5 5 5 4 4 3 3 2 1 2 2 2 2 2 3 6 8
14 9 10 8 8 8 7 8 7 10 12 12 14 13 14 17 16 13 9 6 7 8 9 10 11 11 11 12 13 12 11 7 5 9 12 12 14 15 15 17 18 18 19 22 20 18 18 21 24 24 23 22 22 22 19 16 14 13 14 16 15 14 14 14 15 15 14 13 12 11 10 9 9 9 8 7 6 5 4 4 5 5 6 5 4 3 3 2 1 2 2 2 3 3 5 7 11
12 10 10 8 6 7 7 9 6 7 9 9 11 12 14 15 14 12 9 8 9 10 12 12 14 14 12 14 15 14 9 4 5 9 12 14 14 15 16 17 20 21 20 20 19 19 21 23 23 22 22 22 23 24 22 19 17 16 15 16 15 14 13 12 14 16 15 14 12 11 11 10 9 8 8 8 6 5 4 4 4 6 6 5 4 4 3 2 2 2 2 3 3 3 5 7 11
8 8 9 8 6 4 5 7 3 5 8 6 8 11 12 14 15 10 9 10 10 10 13 14 16 16 14 14 14 13 10 7 8 9 12 14 15 16 17 17 20 22 21 21 21 23 23 23 22 20 19 21 22 24 23 20 20 21 19 17 14 13 13 12 13 15 14 13 13 12 11 10 9 9 9 8 6 5 5 5 5 6 6 5 4 4 3 2 2 2 3 3 3 3 5 6 9
5 6 8 7 6 6 7 7 4 5 5 3 5 7 8 10 12 7 7 8 5 6 11 12 15 17 16 17 15 13 13 12 13 12 12 14 16 18 18 18 21 23 23 22 23 25 24 21 21 21 21 21 22 24 23 22 22 24 23 18 14 13 13 12 12 12 12 13 14 13 12 11 10 10 9 7 6 5 5 5 6 7 7 6 4 3 2 2 2 2 2 3 4 5 5 5 7
5 5 7 6 9 9 5 3 3 3 4 2 4 5 6 7 10 8 5 4 3 4 8 9 12 15 15 15 15 13 14 14 14 14 13 13 16 18 19 19 20 23 24 24 25 25 24 23 24 24 21 19 21 25 24 24 26 25 20 14 11 11 11 12 13 11 11 13 14 14 13 12 11 11 9 7 6 5 5 6 6 7 7 6 4 3 3 2 2 1 2 2 3 4 4 4 5
6 6 6 5 9 9 3 1 4 5 7 5 5 7 5 5 10 8 5 6 6 6 9 12 12 13 13 13 14 14 15 14 13 13 12 13 15 17 18 20 20 23 25 24 26 26 24 24 23 22 21 17 21 27 27 29 30 25 20 17 15 15 15 14 15 14 13 13 14 15 14 13 12 11 10 8 7 6 6 6 7 7 6 5 4 3 3 2 2 1 1 1 1 2 2 3 4
7 6 8 6 4 5 2 2 6 7 6 3 4 8 4 3 8 5 4 8 9 6 8 12 12 12 13 13 14 15 15 15 14 13 12 13 16 17 19 21 22 22 23 25 26 24 20 16 15 15 16 15 20 26 29 32 30 24 24 26 24 23 21 17 14 14 14 14 16 16 15 14 13 12 11 10 8 7 7 8 8 8 7 6 4 3 3 2 1 1 1 0 1 1 2 2 2
5 5 9 9 5 4 3 2 4 3 2 1 3 5 5 5 5 2 3 7 8 7 8 10 11 13 14 15 14 14 15 15 14 14 14 15 18 19 20 21 21 20 22 24 23 18 13 12 13 13 13 14 18 23 28 31 29 27 30 30 27 26 22 17 16 15 15 17 19 17 16 16 14 13 12 10 10 10 10 10 9 8 7 5 4 3 2 1 1 1 1 2 2 3 3 3 3
4 5 8 10 7 5 3 2 3 1 2 6 5 5 5 6 3 3 3 7 7 9 11 12 13 15 15 16 15 15 15 15 16 16 15 16 18 20 20 19 19 20 21 22 20 19 19 20 21 21 18 16 17 21 25 27 27 29 29 26 26 25 19 17 17 15 16 19 19 17 17 17 15 14 13 12 13 12 11 10 9 7 6 5 4 3 2 2 2 2 3 3 3 5 5 5 5
5 8 8 8 7 4 1 3 2 1 4 7 6 7 7 6 4 4 3 5 8 9 10 12 14 14 14 15 15 15 14 14 16 16 14 15 18 18 18 19 19 20 20 20 21 24 26 23 22 23 23 19 18 21 23 24 26 28 26 24 24 22 18 17 16 15 17 19 18 19 19 18 17 16 16 15 15 13 12 10 8 6 5 4 3 3 3 3 4 4 5 5 6 6 6 6 6
7 10 9 8 5 2 2 2 1 3 6 5 6 6 6 6 4 6 5 4 7 9 8 10 11 12 13 13 13 15 13 13 15 15 14 15 17 19 18 19 21 20 20 22 24 26 25 21 21 23 23 21 20 20 21 22 24 24 24 25 23 21 19 18 18 18 18 17 19 21 21 20 19 19 18 17 15 13 11 9 7 5 4 3 3 4 5 5 6 6 7 7 8 8 8 8 9
7 9 9 7 5 2 3 2 2 6 5 2 5 7 6 7 4 4 6 6 7 9 9 10 12 13 13 12 12 13 12 12 13 14 15 14 16 18 19 20 21 21 22 23 23 22 18 17 20 21 21 21 20 20 20 23 22 22 25 25 26 26 23 20 20 20 18 18 21 22 22 22 22 21 20 18 15 12 10 8 6 5 5 5 5 6 7 7 8 7 7 8 9 10 10 11 12
8 9 10 9 7 5 6 6 5 6 3 2 3 7 6 7 5 5 6 7 8 9 8 10 12 13 13 13 12 12 11 12 13 13 15 14 14 14 17 21 22 23 24 21 22 22 20 18 19 21 21 20 19 19 21 23 21 22 24 26 28 28 23 20 20 21 21 21 23 24 24 24 24 22 20 17 15 11 9 8 7 6 7 8 8 9 9 9 9 10 10 11 12 12 13 13 13
11 10 11 10 8 7 8 8 4 3 3 1 1 5 4 4 5 9 11 11 9 9 8 7 8 10 11 10 10 11 11 13 13 13 15 14 14 14 17 20 21 23 23 21 25 27 23 18 18 19 19 18 18 18 22 24 22 22 22 24 28 25 19 17 18 23 25 24 25 25 25 25 24 22 19 16 13 11 8 8 8 9 10 10 10 11 11 11 11 12 13 13 14 15 14 14 14
10 6 5 7 5 5 6 6 5 3 3 3 3 4 4 2 2 5 9 9 5 5 6 5 5 6 7 7 9 11 12 13 13 14 15 15 14 15 18 19 21 23 23 22 26 28 23 18 18 18 18 17 17 17 22 25 24 23 22 22 24 20 14 13 16 22 25 24 25 26 25 25 24 21 18 15 12 10 10 10 11 11 12 12 12 12 12 11 12 14 15 15 16 15 14 14 14
8 3 4 6 3 3 2 1 2 2 2 3 4 3 3 2 2 1 3 5 3 3 5 7 8 7 7 8 10 12 12 13 14 14 15 15 13 15 19 19 20 23 23 22 25 26 22 19 19 19 18 18 17 16 22 26 24 20 21 21 19 14 12 15 18 22 26 26 26 26 25 24 22 19 16 14 13 12 12 13 13 14 14 13 12 12 11 11 13 16 17 17 16 15 14 15 14
5 6 7 5 2 3 3 1 2 1 4 4 2 4 4 4 4 1 2 4 3 3 5 9 9 9 10 9 10 12 12 13 14 14 15 15 14 16 19 20 21 23 22 20 21 22 21 21 22 21 19 18 18 17 22 26 24 21 22 20 14 12 13 17 20 23 27 27 26 26 24 22 20 18 17 16 15 15 14 15 15 15 15 13 12 12 12 13 16 18 17 16 16 14 15 16 16
6 8 6 4 2 1 1 2 2 3 6 3 2 5 7 6 4 2 4 5 5 5 6 7 8 10 11 10 11 13 12 13 15 15 15 14 14 16 18 19 21 22 21 19 18 18 20 23 23 22 20 18 18 17 20 22 21 21 20 17 12 12 15 18 20 23 27 28 28 26 24 22 20 19 18 17 17 16 16 16 16 16 15 14 13 12 12 14 17 18 17 16 15 14 16 17 17
5 7 5 3 4 4 1 2 3 5 5 2 2 4 4 7 6 2 5 9 8 7 7 8 10 12 12 11 12 12 13 13 14 14 14 13 13 15 18 19 21 22 19 18 18 18 21 23 23 22 20 18 18 19 21 21 20 19 17 15 15 16 17 19 22 24 27 29 29 27 25 23 21 20 19 18 18 18 18 17 16 16 16 15 14 13 13 15 17 17 16 16 15 15 17 17 17
2 7 6 1 2 3 3 1 1 4 4 2 3 3 3 6 8 9 11 10 9 10 10 10 12 13 12 10 11 12 14 15 14 14 14 13 13 17 20 21 23 22 18 18 20 20 22 23 23 22 19 19 22 23 23 22 21 22 20 19 19 20 21 22 25 28 29 30 30 29 26 24 22 21 20 19 19 19 18 17 17 17 16 16 16 15 15 16 17 17 16 16 15 16 17 17 17
6 9 9 5 2 1 2 2 0 1 3 3 3 3 4 4 5 11 11 7 9 12 11 11 11 11 10 9 10 11 13 14 13 13 13 13 14 18 21 22 22 21 20 21 22 21 23 22 23 24 23 23 23 22 21 21 21 23 23 21 22 24 25 26 29 32 32 31 30 30 28 25 24 23 21 20 20 19 18 18 18 18 17 16 16 17 16 16 17 17 17 16 16 17 18 17 17
10 8 8 8 5 3 5 5 1 1 0 2 2 2 4 2 1 4 4 1 7 10 10 9 9 9 9 7 9 11 12 12 12 12 13 13 13 16 20 22 21 21 22 24 24 23 23 22 22 24 24 24 23 21 19 20 22 22 19 21 26 28 29 30 31 32 32 31 30 29 27 25 25 23 21 20 20 19 19 19 19 18 17 17 17 17 17 17 17 17 17 17 17 18 19 19 18
Wind_Direction
334 346 352 344 350 11 70 358 328 32 45 301 322 296 70 75 308 9 13 6 37 12 75 310 246 166 119 139 200 149 120 208 260 257 352 37 342 21 179 178 173 177 167 164 163 167 173 173 169 163 160 157 160 161 158 155 152 151 149 147 145 143 142 141 140 137 134 134 133 133 132 129 127 124 122 118 116 115 114 112 108 103 96 95 95 97 101 109 117 118 115 113 113 109 107 105 102
334 342 350 340 2 15 344 351 333 31 40 263 276 79 59 103 225 19 16 8 340 310 318 321 206 200 311 29 122 175 208 247 301 264 8 79 59 107 170 187 178 174 164 160 161 164 171 171 168 163 159 156 158 160 157 154 152 151 149 147 145 144 143 141 139 138 137 136 136 136 134 129 127 124 121 119 118 113 110 109 106 103 97 95 96 99 102 106 118 123 120 119 117 113 111 108 102
335 347 354 337 22 39 85 335 306 168 309 278 264 170 181 148 95 14 360 337 310 304 330 2 170 197 238 238 248 264 239 81 241 245 29 165 111 140 170 184 170 168 160 157 161 164 169 170 168 163 160 157 157 159 155 152 152 150 150 148 145 144 143 141 140 140 139 138 138 137 135 130 127 124 122 121 120 115 111 110 107 105 101 98 100 103 102 103 111 120 121 121 122 117 115 111 103
340 352 359 357 35 42 93 339 136 212 250 242 275 171 203 176 118 313 331 313 301 309 341 1 79 157 238 257 242 263 251 122 218 228 131 166 149 159 166 169 161 160 157 157 161 163 168 170 167 163 160 159 158 159 155 151 152 151 150 147 145 144 142 142 142 142 141 141 139 138 137 132 129 127 125 125 123 120 116 114 111 108 101 97 101 108 106 104 108 115 120 121 123 119 114 109 97
350 10 18 36 195 314 98 38 110 211 236 180 269 181 209 197 137 229 321 299 294 314 331 330 341 72 274 292 226 259 228 93 202 223 146 130 153 163 160 156 153 151 153 156 162 162 167 169 166 163 161 160 160 160 156 151 152 153 151 149 147 145 144 144 144 144 144 143 140 140 140 135 132 130 130 130 128 124 121 118 115 111 102 95 97 106 111 111 112 116 119 119 121 118 111 103 91
35 71 53 70 93 11 155 221 191 220 229 177 257 267 223 208 141 159 301 284 295 324 317 311 352 329 286 8 181 314 41 60 177 209 165 144 158 166 157 149 147 147 151 157 162 161 166 167 165 164 161 161 161 162 159 154 154 154 153 151 148 145 147 147 146 147 146 145 143 144 142 138 135 133 134 134 131 128 126 122 118 113 104 100 98 102 108 111 115 118 119 121 120 117 111 103 95
132 138 53 74 92 338 210 226 222 227 217 183 248 263 246 241 148 141 246 271 307 341 309 305 13 301 291 36 235 90 62 254 233 229 172 158 161 163 156 148 144 147 153 158 159 158 167 166 164 164 162 162 162 164 163 159 156 155 156 153 150 148 148 149 148 149 148 147 146 147 144 142 140 136 135 134 134 134 132 127 121 115 108 109 104 104 108 110 116 121 122 124 123 121 117 111 104
117 158 345 230 165 359 199 222 225 221 213 197 251 261 254 260 203 154 186 229 328 304 262 292 11 297 317 29 275 103 67 281 202 194 165 160 159 158 156 150 145 148 153 156 156 159 168 167 164 164 163 164 164 166 165 164 158 156 159 156 153 152 151 152 152 152 151 151 149 147 145 142 142 138 136 136 137 139 138 130 124 120 117 116 113 112 117 118 121 124 126 128 128 128 125 119 109
80 62 199 225 211 209 199 223 226 219 228 230 244 242 238 252 254 220 195 183 250 235 243 265 164 283 330 324 273 123 78 58 120 148 155 159 155 153 156 154 147 148 152 155 156 160 168 169 166 165 164 166 166 167 168 167 162 159 161 159 157 156 156 156 155 155 153 152 150 148 146 144 144 141 139 141 142 144 145 135 128 132 132 125 120 119 123 127 127 128 129 132 134 133 130 123 112
68 11 178 199 200 216 215 224 223 219 221 230 247 220 204 230 231 243 237 210 177 199 236 344 181 252 299 283 269 106 95 109 124 134 148 155 150 152 155 154 150 149 152 155 156 160 169 171 168 166 165 168 168 169 171 169 164 161 163 162 161 160 160 160 158 156 154 153 152 151 148 146 149 147 142 145 146 143 145 140 137 143 140 132 127 121 123 130 132 133 133 134 136 136 133 124 115
165 56 149 205 205 220 217 226 231 225 207 218 256 234 208 215 221 246 254 243 176 204 224 98 236 224 249 256 257 79 110 128 131 134 145 151 148 152 152 151 151 151 152 154 156 160 167 171 169 169 170 171 170 171 172 170 166 164 166 165 164 164 163 163 160 157 156 155 154 153 150 149 152 153 148 147 146 143 145 144 146 149 141 134 132 126 123 127 132 136 137 137 136 135 133 128 125
202 144 169 225 216 221 211 224 237 235 216 190 236 234 199 185 203 244 250 261 207 210 208 179 226 162 233 252 175 94 128 138 138 142 150 150 147 150 148 147 150 151 152 153 157 160 163 168 169 171 174 175 173 173 173 172 168 167 169 168 167 166 165 164 161 159 157 156 155 154 154 154 154 156 156 154 153 153 157 154 153 153 145 139 137 134 129 127 130 135 138 138 137 137 135 134 138
218 156 183 224 211 211 202 218 235 243 233 196 223 211 156 172 211 235 240 267 247 238 216 195 186 155 253 274 119 135 154 156 149 150 152 150 149 149 145 146 149 151 152 154 158 160 163 168 171 172 175 176 173 173 175 173 170 171 171 170 170 168 167 165 161 159 156 155 154 154 155 155 153 157 163 164 163 163 166 167 163 158 150 147 144 141 138 133 131 132 137 140 142 144 143 141 143
208 163 201 220 201 205 195 210 220 242 243 185 204 175 157 189 218 228 222 254 251 233 198 183 174 206 256 284 171 164 171 164 154 153 152 151 150 147 145 146 150 150 153 158 160 162 166 170 172 174 173 173 172 172 174 173 172 173 173 172 170 168 166 165 162 159 154 151 149 152 154 154 155 160 169 170 167 168 170 173 173 169 156 154 154 151 147 143 139 136 138 143 149 154 155 152 140
189 166 208 223 195 202 199 206 205 231 241 167 184 174 182 218 192 202 209 239 257 137 146 167 180 224 248 254 284 133 164 161 153 152 149 149 147 145 145 145 148 150 155 160 163 166 170 172 172 174 173 171 170 170 171 173 175 174 174 172 170 167 164 165 164 157 152 149 149 153 153 153 156 159 167 171 172 174 169 173 179 178 166 162 164 160 157 154 149 145 142 143 150 158 163 162 147
184 156 197 233 204 204 198 187 198 224 243 184 187 172 182 212 194 202 211 229 259 95 192 192 183 266 290 267 336 116 153 154 151 149 145 145 143 144 142 144 149 151 158 162 167 170 173 174 173 175 174 172 171 171 172 174 177 174 173 172 170 166 164 166 162 155 151 151 153 154 154 152 152 154 159 162 165 166 160 169 179 179 178 175 172 168 165 164 158 153 148 145 146 150 158 163 163
138 184 213 230 207 204 184 173 193 206 243 230 176 168 186 193 210 234 113 217 233 188 205 206 165 330 317 313 40 132 146 148 150 147 145 146 145 147 147 149 153 156 163 167 172 174 175 176 174 175 175 175 173 172 172 174 177 175 173 172 170 168 166 165 160 155 152 153 156 155 154 150 149 148 145 141 139 139 140 146 154 164 175 177 177 174 170 169 164 159 157 152 146 145 152 166 194
174 195 216 224 206 198 176 178 187 168 226 237 172 169 192 185 197 210 141 202 222 207 202 224 189 54 29 46 114 136 145 149 152 152 151 154 154 155 156 158 161 163 167 171 177 177 176 178 177 176 176 178 175 172 172 173 177 175 174 173 170 169 167 164 160 156 154 155 158 155 153 151 149 143 136 131 127 125 124 121 123 131 147 160 171 173 171 171 167 166 167 163 164 158 172 256 263
198 181 216 222 200 183 176 182 187 182 219 242 213 173 190 192 187 184 203 211 198 197 205 223 222 180 87 103 130 142 149 155 158 159 158 162 165 163 163 165 169 170 171 174 179 181 180 179 180 179 177 178 177 174 173 173 175 175 175 174 171 170 169 167 163 159 158 157 158 156 152 150 145 136 127 123 119 115 112 108 107 107 116 132 149 161 165 170 170 172 177 184 202 290 324 296 283
203 199 225 219 169 169 187 187 193 205 211 240 245 173 182 198 179 180 206 210 194 198 205 208 228 215 158 139 148 153 156 161 164 165 164 168 171 169 168 169 174 175 174 176 178 182 183 181 182 181 180 179 178 176 174 174 174 174 175 176 173 172 171 169 166 162 161 159 156 153 150 147 143 134 125 121 118 114 108 103 101 100 104 111 125 142 155 166 173 180 191 207 228 343 334 316 310
179 211 228 179 143 184 189 184 197 211 202 234 251 143 173 187 181 191 184 205 206 210 222 218 231 215 168 168 167 165 163 166 170 170 170 171 173 173 173 173 176 176 175 177 181 184 185 184 184 183 181 180 179 178 175 175 176 176 176 176 175 174 174 170 167 164 161 159 154 151 148 145 142 136 131 128 124 117 109 103 102 102 102 107 115 124 139 157 170 180 189 192 168 76 360 349 353
182 216 231 109 156 200 187 179 200 204 196 240 257 248 185 151 175 189 186 217 220 207 225 216 232 221 168 173 175 174 173 173 175 176 174 174 178 176 173 173 175 177 179 183 185 187 188 186 184 183 182 180 182 179 176 177 178 178 177 176 176 176 176 171 168 165 161 159 155 153 151 147 142 135 132 129 125 118 112 108 107 107 107 108 110 113 122 133 144 146 142 138 121 85 43 13 5
215 218 199 159 171 196 183 185 205 188 200 225 241 258 108 129 190 192 202 224 225 198 220 213 243 241 167 169 173 178 180 180 181 182 179 178 181 179 175 176 176 178 182 187 187 189 189 187 185 183 182 181 183 181 178 179 180 179 177 177 178 178 178 173 169 167 162 160 158 157 153 149 144 138 134 128 126 121 115 114 114 115 113 109 108 108 109 114 119 117 116 120 87 45 26 7 359
226 218 173 187 182 199 193 170 177 170 215 224 259 304 269 220 218 185 209 225 237 235 257 259 259 174 161 167 174 181 185 186 187 187 185 182 183 181 178 179 178 179 183 188 188 189 189 187 184 184 184 184 182 181 180 180 181 180 178 178 180 180 180 176 172 169 164 161 161 159 152 148 146 143 138 131 129 125 120 118 116 115 111 108 108 104 102 110 114 112 106 95 54 14 360 349 348
225 219 165 174 183 209 223 222 212 207 237 248 286 273 248 234 215 236 223 215 239 236 247 257 154 150 166 172 177 183 187 190 190 187 186 186 183 181 182 183 181 184 188 189 187 188 188 185 183 185 185 184 183 182 182 183 182 180 178 180 183 183 182 178 175 173 169 167 166 162 154 149 148 148 141 136 130 124 123 119 112 106 101 99 97 94 96 104 103 95 71 50 7 346 344 338 342
213 208 191 190 197 206 222 239 244 246 246 259 264 263 258 219 167 259 233 216 233 218 215 205 160 167 174 178 180 184 188 189 189 186 186 185 183 184 187 187 185 191 192 187 185 184 186 184 182 185 185 184 183 182 183 185 183 181 180 182 184 185 185 181 177 177 176 175 173 168 161 153 151 151 145 140 131 121 124 120 110 100 94 94 91 91 88 76 59 35 21 8 347 341 342 344 348
179 202 207 208 217 221 205 218 239 250 241 238 249 262 263 211 178 242 212 198 224 199 208 199 181 187 180 182 185 187 188 187 189 185 185 186 187 189 189 190 191 194 191 186 183 179 182 184 181 184 184 184 184 183 184 187 185 184 184 184 185 187 188 184 180 181 181 182 178 171 165 160 157 156 152 143 132 123 120 114 106 96 94 99 101 108 85 48 13 358 352 341 339 347 352 354 357
132 187 202 210 224 236 227 222 227 231 236 219 230 261 261 213 200 229 188 132 192 179 200 197 198 201 187 188 183 186 190 188 189 187 190 192 191 191 190 191 193 194 191 187 180 174 178 180 180 183 184 185 184 185 187 187 188 188 188 187 186 191 190 184 183 182 182 184 179 172 169 167 168 165 161 152 144 137 119 105 94 89 91 101 107 105 77 36 360 343 339 332 341 7 2 358 358
164 157 190 198 209 228 225 227 225 211 224 188 189 258 251 225 210 200 190 196 183 188 205 200 207 202 191 192 183 188 191 187 191 195 199 198 196 193 192 193 194 193 190 183 173 171 176 175 178 183 185 186 184 185 188 189 191 190 190 188 187 194 192 184 184 182 182 184 179 176 175 176 182 184 183 180 177 162 124 97 78 67 50 58 92 88 63 8 339 331 332 331 354 7 358 356 354
208 200 213 189 198 221 206 211 218 210 212 160 175 243 243 229 206 170 188 193 178 200 210 203 204 203 201 195 189 193 191 191 197 200 201 202 203 196 195 199 198 194 180 175 172 170 173 172 178 182 185 188 186 187 186 189 196 192 189 190 191 195 192 186 184 183 183 184 182 181 180 181 194 202 200 198 197 180 129 82 48 28 12 8 7 52 76 305 310 320 328 329 342 350 352 357 348
190 179 215 212 214 208 172 190 202 203 207 173 198 244 245 232 181 158 193 189 186 199 203 204 200 201 207 197 196 198 195 199 201 202 204 205 204 198 201 203 199 195 174 170 170 169 172 174 179 180 184 187 185 190 188 191 201 195 190 192 193 193 189 188 186 185 186 186 186 186 183 187 202 202 200 209 210 193 138 47 12 354 345 337 323 288 185 236 277 302 312 322 336 340 342 343 333
176 180 205 204 212 193 170 193 191 196 204 186 203 243 253 248 215 181 181 181 195 204 198 199 202 203 207 201 200 201 200 204 204 206 207 206 204 201 201 201 198 193 176 168 170 171 167 171 181 181 184 185 185 193 192 194 202 197 192 192 191 192 190 191 190 189 191 192 192 191 191 195 207 207 207 222 218 211 240 356 331 330 326 321 313 217 163 185 209 207 278 323 329 327 325 324 325
184 202 200 183 197 197 182 193 193 199 197 190 208 232 252 252 230 195 178 179 192 203 202 201 205 206 205 205 205 201 200 203 206 209 209 206 206 203 198 196 193 184 175 167 162 160 160 173 192 190 186 187 186 192 194 195 201 198 194 194 195 199 199 196 195 195 195 197 197 196 200 207 214 214 223 230 214 220 262 300 309 316 310 304 289 168 161 169 175 180 243 314 316 321 322 325 330
183 198 194 163 187 191 181 177 197 203 201 199 209 227 237 236 223 179 166 186 191 193 200 203 210 213 211 211 210 203 201 205 208 209 207 205 205 202 195 190 185 176 169 162 160 171 182 189 195 193 188 187 188 191 193 193 195 194 189 194 200 203 204 202 202 202 200 201 202 202 207 219 224 223 233 232 213 222 255 275 286 294 289 280 243 197 177 162 162 185 233 291 300 311 322 332 334
162 174 177 148 178 192 195 187 181 195 207 212 207 221 235 237 237 218 161 170 194 197 195 199 205 212 214 216 219 211 206 210 210 208 205 201 199 195 186 180 177 173 167 171 182 188 190 191 192 195 189 186 188 191 193 195 196 193 185 190 198 203 207 209 209 206 205 206 206 208 216 228 229 226 233 229 216 223 242 256 257 267 271 251 220 203 174 157 172 223 261 278 293 301 329 341 337
159 166 177 164 176 194 201 199 187 187 204 217 213 217 229 235 239 232 198 158 186 198 191 198 203 208 213 214 223 219 214 216 208 199 193 186 189 184 175 175 175 173 175 186 192 186 184 190 195 198 196 192 190 190 192 193 192 189 189 195 199 205 212 217 218 212 208 210 211 217 225 228 222 223 230 225 218 223 237 243 239 251 247 220 212 204 182 173 208 270 284 302 315 331 354 350 343
163 163 180 177 182 190 198 213 207 193 206 218 216 220 224 232 238 230 213 174 178 185 182 196 202 206 213 213 220 224 221 213 172 177 172 169 179 173 168 174 175 176 182 189 186 174 181 191 194 196 197 196 191 187 186 185 186 185 192 200 201 207 217 223 223 216 211 213 217 221 219 213 213 218 224 221 220 228 238 240 235 237 223 207 212 208 207 228 250 273 292 330 339 350 358 355 349
167 171 182 185 193 189 190 211 216 195 215 221 212 223 227 232 238 224 203 192 195 186 180 191 199 206 214 215 218 222 219 166 146 172 167 167 171 166 167 174 178 180 181 184 179 175 184 190 195 196 193 192 190 186 182 183 192 194 198 207 206 208 220 223 222 218 215 214 212 208 202 199 204 211 216 219 221 224 228 232 223 215 207 205 212 212 222 241 260 273 296 332 334 349 3 0 356
173 178 181 191 191 178 193 215 225 186 211 227 202 219 231 232 239 223 192 203 207 191 187 187 193 202 212 218 219 218 214 196 195 190 171 171 169 166 172 176 184 185 180 181 178 178 184 190 196 197 191 189 187 185 184 186 193 194 196 206 207 210 219 220 218 215 208 202 195 190 190 190 196 204 209 211 209 209 216 217 205 199 199 204 207 209 224 246 265 276 290 313 319 339 5 3 3
193 181 182 189 168 173 204 202 189 181 210 249 185 211 235 233 242 230 193 213 219 189 196 193 192 197 205 213 216 213 211 209 210 201 179 172 169 172 179 180 185 185 180 179 177 179 186 192 197 197 194 189 184 185 187 187 190 190 190 196 203 211 216 208 202 199 189 184 182 181 183 184 188 194 194 192 191 194 202 202 197 194 197 197 194 202 219 243 256 268 281 303 316 326 350 6 12
208 206 191 170 163 187 218 190 167 187 220 215 166 218 239 225 238 232 184 210 230 179 192 201 202 203 206 211 213 213 214 211 211 206 188 173 174 181 183 181 182 184 184 179 177 183 188 194 198 197 195 188 184 187 187 185 188 188 183 177 183 193 194 188 183 178 175 178 178 177 178 177 180 181 178 177 174 171 177 186 188 186 186 181 173 189 204 224 229 242 287 312 329 328 341 7 17
204 224 216 173 163 180 213 192 183 212 219 194 189 234 230 199 229 222 156 185 206 177 184 197 202 207 211 213 214 216 220 218 217 211 193 180 182 185 184 182 182 186 189 183 183 190 193 195 197 195 193 187 187 191 189 186 186 182 169 161 169 173 174 184 185 178 176 177 176 175 173 171 173 172 168 167 159 156 162 169 171 168 163 158 154 169 180 185 198 225 295 317 338 344 353 355 3
194 198 210 204 163 163 168 187 195 215 228 179 196 236 234 196 221 207 151 191 193 173 190 196 198 206 209 211 212 213 217 218 217 208 193 186 189 188 186 186 184 186 188 185 189 195 193 192 193 195 195 189 190 193 191 188 183 176 174 176 183 185 183 188 190 181 177 175 174 174 169 166 168 167 164 161 154 151 153 151 151 149 143 141 143 149 161 172 195 242 290 7 20 40 35 24 20
180 160 192 202 210 207 187 192 208 230 276 220 191 224 243 236 217 135 144 196 186 180 201 200 200 206 208 212 213 212 215 214 212 207 194 192 197 195 190 187 187 187 186 186 187 186 185 196 201 206 210 199 192 192 191 190 183 177 183 186 187 191 190 186 183 177 173 172 172 171 167 164 164 164 161 156 150 147 147 144 141 140 138 136 139 144 153 158 144 112 90 76 65 71 72 71 62
156 153 189 198 211 216 191 222 228 18 283 228 183 169 226 237 203 104 148 193 193 192 202 204 205 207 208 212 213 213 216 213 213 210 199 197 201 199 192 186 186 187 186 183 177 178 193 206 205 206 213 210 199 191 190 191 183 180 188 191 188 190 189 181 175 170 168 169 168 166 164 161 159 158 155 150 148 146 144 142 138 135 132 129 131 133 130 126 116 101 92 83 79 83 79 75 67
149 168 193 202 209 208 204 253 246 331 264 230 178 167 219 239 197 172 173 195 201 197 202 206 205 207 208 209 210 212 213 212 213 210 201 198 197 196 191 185 186 187 184 176 175 187 197 202 201 202 209 212 203 194 190 185 176 176 186 192 188 184 180 175 167 162 164 164 163 162 159 155 151 149 148 146 146 145 142 138 133 127 118 116 119 122 125 121 113 102 95 89 86 85 79 71 67
145 168 190 203 208 202 225 265 306 264 253 225 188 181 223 246 204 187 195 192 189 190 202 209 205 210 213 210 207 208 208 208 211 208 200 195 191 190 188 186 189 186 179 176 182 190 192 195 201 202 208 213 205 197 186 170 165 174 186 191 194 189 178 169 163 160 159 156 159 158 154 151 147 146 147 145 144 143 141 135 128 121 112 113 122 125 124 117 110 102 93 91 86 82 81 80 78
151 165 178 187 197 211 228 221 216 238 239 196 192 186 210 236 219 193 207 202 192 190 193 198 202 210 214 212 206 205 204 201 205 206 199 192 190 188 186 188 188 181 177 177 179 185 187 195 202 200 206 211 204 192 176 164 170 187 189 185 192 195 182 169 163 159 152 153 159 156 151 148 146 145 145 143 142 142 139 131 123 121 119 122 124 122 119 113 109 100 92 92 89 87 88 87 85
177 172 168 175 184 192 216 209 204 225 222 60 179 183 208 241 241 243 237 226 217 209 202 196 195 202 207 207 202 196 194 195 199 203 199 195 193 190 186 187 183 176 177 171 170 184 198 202 200 200 204 205 198 185 170 165 175 189 188 184 191 194 181 167 162 158 158 164 165 158 153 149 144 144 144 141 139 136 133 126 122 123 122 122 121 119 117 113 110 104 100 99 95 92 91 88 85
190 182 176 180 176 181 205 206 207 218 189 94 102 178 217 252 232 230 232 234 224 211 217 209 194 201 204 199 193 186 187 193 197 198 197 196 193 191 187 184 178 175 174 165 170 189 202 201 197 197 199 199 193 180 167 169 178 183 187 193 195 190 175 163 163 165 168 169 165 161 157 152 147 145 143 139 135 131 127 122 122 123 121 121 122 119 116 113 112 108 104 103 98 94 90 85 82
192 188 185 189 179 186 199 198 196 179 150 144 134 176 206 201 194 215 226 241 239 207 214 212 206 209 196 182 182 185 188 193 197 196 196 195 191 191 187 180 177 176 172 166 173 188 197 195 192 191 192 191 185 172 164 173 184 181 182 195 197 185 166 159 164 168 170 169 166 163 160 154 148 144 140 134 130 128 124 120 119 120 121 123 122 118 113 110 112 110 106 104 99 93 88 82 78
188 175 196 203 187 167 160 167 182 137 130 174 179 213 228 229 285 309 237 250 249 219 206 196 201 192 174 179 185 188 190 192 195 194 193 192 185 187 184 178 176 175 172 168 174 185 190 187 187 187 186 182 178 165 156 167 182 180 181 194 195 174 152 160 170 171 171 171 168 162 159 153 146 141 138 132 128 124 120 119 120 121 124 123 118 113 108 108 113 113 109 105 98 90 84 80 77
164 184 196 188 113 112 134 99 59 110 212 195 164 224 243 263 271 200 171 214 201 197 192 188 191 176 173 187 188 188 190 190 193 191 189 187 181 180 180 177 176 173 171 170 173 181 183 180 181 181 179 176 175 163 149 159 175 180 183 191 184 160 158 174 182 174 168 168 165 159 155 151 145 141 138 131 126 122 120 123 124 124 125 120 113 109 107 112 117 114 108 102 95 89 84 80 79
159 190 182 126 72 5 151 159 130 175 211 206 150 215 224 231 242 135 159 202 198 191 189 181 178 175 183 193 191 189 186 184 188 188 186 183 178 177 175 174 171 169 169 171 172 176 176 176 178 175 171 168 170 162 150 159 176 182 184 184 173 166 174 183 183 173 166 164 160 157 154 149 145 142 136 130 127 125 126 128 127 127 126 120 114 110 109 117 119 113 106 98 92 88 86 83 84
186 183 157 139 195 206 183 166 166 175 196 214 188 213 224 215 221 221 200 204 199 190 187 183 183 186 192 195 190 185 180 181 184 184 183 180 175 172 170 167 165 164 166 168 170 171 171 174 175 169 162 161 163 160 156 167 186 192 186 174 167 172 179 181 178 173 166 161 158 157 154 149 145 141 136 132 131 131 132 131 130 128 127 123 120 116 114 119 119 111 103 96 91 91 90 88 87
193 173 168 221 227 190 183 175 171 177 182 206 198 194 224 216 218 232 227 206 184 179 186 195 196 195 195 190 185 182 181 184 183 180 179 176 171 168 164 163 162 162 162 163 165 164 166 170 170 165 159 158 161 161 163 172 185 192 186 173 168 173 179 177 171 168 164 161 160 157 152 148 145 141 138 136 136 136 134 133 132 131 128 127 126 125 124 123 119 111 103 98 95 94 93 90 88
182 185 184 190 187 157 195 189 45 190 179 192 206 214 225 215 207 224 231 207 177 182 189 198 200 198 197 188 182 182 184 183 180 179 176 170 164 161 160 159 158 158 158 161 161 159 162 165 164 162 160 160 160 160 167 172 177 184 180 165 159 165 173 170 164 163 162 161 159 153 148 147 144 142 141 140 138 137 135 133 132 132 130 129 129 129 129 125 119 111 104 101 99 98 96 92 89
183 190 187 189 188 166 184 189 183 283 247 178 203 256 250 234 187 224 239 195 183 188 186 191 195 194 191 186 184 184 182 177 175 175 169 163 157 155 156 156 155 156 157 159 160 158 160 160 158 158 159 160 161 161 170 174 173 174 166 151 150 158 166 166 160 158 158 157 156 150 146 145 143 143 144 141 138 136 134 133 132 133 131 130 131 131 130 126 118 111 105 103 102 100 97 94 92